Regional Weather Roundup
Issued by NWS

Home | Current Version | Previous Version | Text Only | Print | Product List | Glossary On
Versions: 1 2 3 4 5 6 7 8 9 10 11 12 13 14 15 16 17 18 19 20 21 22 23 24 25 26 27 28 29 30 31 32 33 34 35 36 37 38 39 40 41 42 43 44 45 46 47 48 49 50
000
ASUS45 KBOU 181307
RWRCO

WEATHER ROUNDUP FOR COLORADO
NATIONAL WEATHER SERVICE DENVER/BOULDER CO
600 AM MST THU DEC 18 2014

NOTE: "FAIR" INDICATES FEW OR NO CLOUDS BELOW 12000 FEET WITH NO
SIGNIFICANT WEATHER AND/OR OBSTRUCTIONS TO VISIBILITY.

COZ001>005-013-030-031-181400-
...NORTHWEST COLORADO...

CITY           SKY/WX    TMP DP  RH WIND       PRES   REMARKS
CRAIG          CLOUDY    25  23  92 W3        30.09S FOG
HAYDEN         CLOUDY    23  19  86 CALM      30.07S
MEEKER         CLOUDY    25  23  92 CALM      30.08R
MOUNT WERNER   NOT AVBL
STEAMBOAT SPGS CLOUDY    25  23  94 CALM      30.07R
WALDEN         CLOUDY     5   1  85 CALM      30.05R VSB 1/4
$$

COZ006>008-011-181400-
...WEST CENTRAL VALLEYS...

CITY           SKY/WX    TMP DP  RH WIND       PRES   REMARKS
GRAND JUNCTION LGT SNOW  32  32 100 N5        30.10R FOG     WCI  27
MONTROSE       CLOUDY    32  32 100 CALM      30.10R FOG
EAGLE          CLOUDY    25  25 100 CALM      30.09R
RIFLE          CLOUDY    32  31  96 SW3       30.08R FOG
DELTA          LGT SNOW  35  34  98 CALM      30.09S
NUCLA          LGT SNOW  32  32 100 CALM      30.12S
$$

COZ017>023-064>068-181400-
...SOUTHWEST COLORADO...

CITY           SKY/WX    TMP DP  RH WIND       PRES   REMARKS
DURANGO        CLOUDY    29  27  92 E3        30.09R
CORTEZ         CLOUDY    32  32 100 CALM      30.10R FOG
PAGOSA SPRINGS CLOUDY    28  28  96 S3        30.09R
TELLURIDE      PTCLDY   N/A N/A N/A CALM      30.07R
WOLF CREEK PAS SNOW      12  10  92 MISG      30.03S VSB 1/4
$$

COZ009-010-012-014-032>034-037-058>063-181400-
...CENTRAL COLORADO...

CITY           SKY/WX    TMP DP  RH WIND       PRES   REMARKS
ASPEN          CLOUDY    24  18  77 S7        30.03S WCI  16
BUENA VISTA    PTCLDY    16  11  81 CALM      30.03R
COPPER MTN     LGT SNOW  18  10  73 MISG      30.00R
BERTHOUD PASS  CLOUDY     9   3  78 MISG      29.99R
COTTONWOOD PAS PTCLDY    27  18  69 N5        30.00S WCI  21
GUNNISON       CLOUDY    21  18  86 CALM      30.09R
KREMMLING      LGT SNOW  14  12  92 CALM      30.09R
LEADVILLE      CLOUDY    11   6  81 NE7       30.00R WCI   0
MONARCH PASS   CLOUDY    14  10  85 MISG      30.10R
SALIDA         PTCLDY    24  18  77 NW9       30.10R WCI  15
SUNLIGHT       LGT SNOW N/A N/A N/A CALM      30.04R
WILKERSON PASS PTCLDY    16  12  86 W8        30.01R WCI   5
$$

COZ069>075-181400-
...SAN LUIS VALLEY/SANGRE DE CRISTO MOUNTAINS...

CITY           SKY/WX    TMP DP  RH WIND       PRES   REMARKS
ALAMOSA        CLOUDY    24  22  91 SW6       30.07R WCI  17
LA VETA PASS   CLOUDY    19  18  93 MISG      30.00S FOG
SAGUACHE       CLOUDY    19  18  93 NW8       30.08R WCI   9
$$

COZ035-036-038>040-181400-
...NORTHERN COLORADO FRONT RANGE...

CITY           SKY/WX    TMP DP  RH WIND       PRES   REMARKS
DENVER INTL AP PTCLDY    29  26  89 CALM      29.99R
DMNS CITY PARK   N/A     26  25  96 S1        29.99S
AURORA         PTCLDY    27  26  99 CALM      30.00R
FRONT RANGE AP PTCLDY    28  27  93 S5        30.00R WCI  23
ERIE MUNI ARPT   N/A     18  17  95 CALM      30.00R
BOULDER MUN AP PTCLDY    27  23  86 CALM      29.99R
CENTENNIAL     MOCLDY    27  26  96 S5        29.98R WCI  22
BROOMFIELD     CLEAR     30  25  80 MISG      29.99R
FORT COLLINS   PTCLDY    21  19  93 CALM      30.01R
LONGMONT       PTCLDY    21  19  91 CALM      30.02S
$$

COZ041-046-047-076>085-087-088-181400-
...PIKES PEAK/PALMER DIVIDE AND SOUTHERN FOOTHILLS...

CITY           SKY/WX    TMP DP  RH WIND       PRES   REMARKS
COLO. SPRINGS  PTCLDY    25  24  96 N8        30.00S WCI  16
A. F. ACADEMY  PTCLDY    26  26  99 N2        29.99S
ELLICOTT       NOT AVBL
FALCON         PTCLDY    24  23  98 NW6       30.00S WCI  16
FORT CARSON    MOCLDY    22  21  98 N7        29.99R WCI  13
LIMON          MOCLDY    17  15  92 N5        30.00R WCI  10
MONUMENT HILL  MOCLDY    27  27 100 S8        29.97S WCI  18
TRINIDAD       CLEAR     24  19  81 W12       30.02R WCI  13
$$

COZ042>045-048>051-090-091-181400-
...NORTHEAST COLORADO...

CITY           SKY/WX    TMP DP  RH WIND       PRES   REMARKS
GREELEY ARPT   PTCLDY    16   7  67 NW3       30.01R
AKRON          PTCLDY    20  17  88 W13       30.00R WCI   7
BURLINGTON     PTCLDY    16  13  88 SW7       30.02R WCI   6
WRAY           CLOUDY   N/A N/A N/A CALM      30.05R VSB 1/2
STERLING       MOCLDY    16  12  86 S5        30.02S WCI   9
HOLYOKE        NOT AVBL
FORT MORGAN    MOCLDY    17  15  93 W10       30.02R WCI   4
$$

COZ086-089-092>099-181400-
...SOUTHEAST COLORADO...

CITY           SKY/WX    TMP DP  RH WIND       PRES   REMARKS
PUEBLO         PTCLDY    16  15  96 NW3       30.02R
LA JUNTA       CLEAR     24  21  88 SW7       30.03R WCI  16
LAMAR          CLOUDY    28  27  96 NW5       30.05R WCI  23
SPRINGFIELD      N/A     24  24 100 N6        30.03R WCI  17
$$



USA.gov is the U.S. government's official web portal to all federal, state and local government web resources and services.